Home > Weather > Coeur d'Alene > Past weeks

Flag for USA Weather for the Past 2 Weeks in Coeur d'Alene, Idaho, USA

Now
63 °F

Sunny.


Feels Like: 63 °F
Forecast: 55 / 75 °F
Wind: 5 mph from East

Location: Coeur d'Alene Weather Reporting System

Current Time: May 5, 2016 at 8:55:59 PM

Latest Report: May 5, 2016 at 8:35 PM


Visibility: 10 mi

Pressure: 29.89 "Hg (27.67 "Hg at 655m altitude)

Humidity: 64%

Dew Point: 50 °F

Location of Coeur d'AleneLocation

Historic Weather in Coeur d'Alene — Graph

°F

Coeur d'Alene Temperature Yesterday

Maximum temperature yesterday: 77 °F (at 2:15 PM)
Minimum temperature yesterday: 52 °F (at 12:35 AM)
Average temperature yesterday: 64 °F

High & Low Weather Summary for the Past Weeks

 TemperatureHumidityPressure
High82 °F (May 3, 2:35 PM)94% (Apr 23, 2:55 AM)30.25 "Hg (Apr 23, 2:55 AM)
Low36 °F (Apr 25, 1:35 AM)11% (May 1, 9:15 AM)29.54 "Hg (Apr 22, 4:15 AM)
Average57 °F61%29.92 "Hg
* Reported Apr 20 7:15 PM — May 5 7:35 PM, Coeur d'Alene, Weather by CustomWeather, © 2016

Note: Actual official high and low records may vary slightly from our data, if they occured in-between our weather recording intervals... More about our weather records

Advertising

Coeur d'Alene Weather History for the Previous 24 Hours

Scroll right to see more
 ConditionsComfort  
Time TempWeatherWind HumidityBarometerVisibility
7:35 PM
Thu, May 5
66 °FSunny.9 mph60%29.85 "Hg10 mi
7:15 PM68 °FSunny.9 mph56%29.84 "Hg10 mi
6:55 PM70 °FSunny.10 mph53%29.84 "Hg10 mi
6:35 PM72 °FSunny.10 mph50%29.84 "Hg10 mi
6:15 PM72 °FSunny.9 mph47%29.84 "Hg10 mi
5:55 PM73 °FSunny.12 mph47%29.84 "Hg10 mi
5:35 PM73 °FSunny.8 mph47%29.84 "Hg10 mi
5:15 PM73 °FSunny.7 mph47%29.84 "Hg10 mi
4:55 PM73 °FSunny.8 mph47%29.84 "Hg10 mi
4:35 PM73 °FSunny.6 mph47%29.84 "Hg10 mi
4:15 PM73 °FSunny.8 mph44%29.85 "Hg10 mi
3:55 PM73 °FSunny.No wind44%29.85 "Hg10 mi
3:35 PM73 °FSunny.5 mph41%29.85 "Hg10 mi
3:15 PM73 °FSunny.7 mph41%29.86 "Hg10 mi
2:55 PM72 °FSunny.No wind41%29.87 "Hg10 mi
2:35 PM72 °FSunny.7 mph41%29.88 "Hg10 mi
2:15 PM72 °FSunny.5 mph44%29.88 "Hg10 mi
1:55 PM70 °FSunny.7 mph46%29.88 "Hg10 mi
1:35 PM70 °FSunny.8 mph50%29.89 "Hg10 mi
1:15 PM70 °FSunny.6 mph50%29.89 "Hg10 mi
12:55 PM70 °FSunny.3 mph50%29.89 "Hg10 mi
12:35 PM70 °FSunny.7 mph53%29.90 "Hg10 mi
11:55 AM66 °FSunny.5 mph56%29.91 "Hg10 mi
11:35 AM66 °FSunny.No wind60%29.90 "Hg10 mi
11:15 AM64 °FSunny.5 mph64%29.91 "Hg10 mi
10:55 AM63 °FSunny.3 mph68%29.91 "Hg10 mi
10:35 AM63 °FSunny.No wind64%29.92 "Hg10 mi
10:15 AM63 °FSunny.3 mph68%29.92 "Hg10 mi
9:55 AM61 °FSunny.No wind72%29.92 "Hg10 mi
9:35 AM59 °FPassing clouds.No wind72%29.92 "Hg10 mi
9:15 AM57 °FScattered clouds.6 mph82%29.92 "Hg10 mi
8:55 AM57 °FPartly sunny.6 mph82%29.92 "Hg10 mi
8:35 AM57 °FScattered clouds.No wind82%29.93 "Hg10 mi
8:15 AM55 °FPassing clouds.No wind82%29.93 "Hg10 mi
7:55 AM55 °FPassing clouds.6 mph88%29.93 "Hg10 mi
7:35 AM54 °FPartly sunny.6 mph82%29.93 "Hg10 mi
7:15 AM54 °FOvercast.6 mph88%29.94 "Hg10 mi
6:55 AM54 °FPartly sunny.6 mph88%29.94 "Hg10 mi
6:35 AM54 °FSunny.6 mph88%29.93 "Hg10 mi
6:15 AM52 °FClear.5 mph88%29.93 "Hg10 mi
5:55 AM50 °FClear.3 mph88%29.93 "Hg10 mi
5:35 AM52 °FPassing clouds.6 mph82%29.92 "Hg10 mi
5:15 AM52 °FOvercast.7 mph88%29.92 "Hg10 mi
4:55 AM52 °FPassing clouds.5 mph88%29.91 "Hg10 mi
4:35 AM52 °FPassing clouds.3 mph88%29.91 "Hg10 mi
4:15 AM52 °FPassing clouds.5 mph88%29.91 "Hg10 mi
3:55 AM52 °FClear.3 mph88%29.90 "Hg10 mi
3:35 AM52 °FClear.No wind88%29.90 "Hg10 mi
3:15 AM52 °FPassing clouds.No wind82%29.89 "Hg10 mi
2:55 AM54 °FClear.No wind82%29.89 "Hg10 mi
2:35 AM55 °FClear.No wind77%29.88 "Hg10 mi
2:15 AM54 °FClear.9 mph82%29.87 "Hg10 mi
1:55 AM54 °FClear.12 mph82%29.86 "Hg10 mi
1:35 AM54 °FPassing clouds.14 mph82%29.85 "Hg10 mi
1:15 AM54 °FOvercast.10 mph88%29.88 "Hg10 mi
12:55 AM55 °FThundershowers. Overcast.18 mph77%29.94 "Hg7 mi
12:35 AM59 °FPartly cloudy.25 mph68%29.93 "Hg10 mi
12:15 AM61 °FPartly cloudy.21 mph63%29.88 "Hg10 mi
11:55 PM
Wed, May 4
61 °FPassing clouds.8 mph68%29.87 "Hg10 mi
11:35 PM59 °FPassing clouds.12 mph72%29.84 "Hg10 mi
11:15 PM57 °FPassing clouds.5 mph72%29.79 "Hg10 mi
10:55 PM55 °FClear.5 mph72%29.79 "Hg10 mi
10:35 PM55 °FClear.No wind72%29.79 "Hg10 mi
10:15 PM55 °FClear.No wind72%29.79 "Hg10 mi
9:55 PM61 °FClear.No wind63%29.80 "Hg10 mi
9:35 PM61 °FClear.6 mph68%29.80 "Hg10 mi
9:15 PM61 °FClear.5 mph59%29.80 "Hg10 mi
8:55 PM61 °FSunny.3 mph59%29.80 "Hg10 mi
8:35 PM63 °FSunny.6 mph56%29.80 "Hg10 mi
8:15 PM64 °FSunny.5 mph56%29.80 "Hg10 mi
Weather by CustomWeather, © 2016

See weather overviewHow to use our weather pages